Starlink 3282

operational
NORAD ID: 50177 Int'l Des: 2021-125 Owner: SPXS Country: US Constellation: starlink
LEOCIRCULAR

Über Starlink 3282

Beschreibung wird geladen...

Live-Position

3D-Globus wird geladen...

Nächste Überflüge

Höhenverlauf

Altitude vs Time

uPlot chart will show altitude changes over time

Zweizeiliger Elementsatz

1 50177U 21125X 25305.85570358 .00000619 00000-0 56986-4 0 9991
2 50177 53.2154 102.9890 0001327 90.0004 270.1140 15.08816854217301
Epoch: 1. Nov. 2025 • Age: 25 hours

Aktueller Status

Höhe 539.9 km
Geschwindigkeit 7.59 km/s
Subsatellitenpunkt 8.78°N, 92.07°E
Startdatum 18. Dez. 2021
Alter 3.8 years
Typ internet

Technische Details

Klassifizierung Payload
Masse 290.00 kg
Trockenmasse 270.00 kg
Gesamtmasse 290.00 kg
Länge 0.20 m
Durchmesser 2.80 m
Spannweite 9.00 m
Form Box + pan
Hersteller SPXS
Bus-Typ Starlink
Phasenstatus In Orbit
Besitzer/Staat SPXS/US

Große Konstellationen

Loading constellations...